Theta_e
290 293 294 294 294 295 296 296 296 297 296 294 294 294 294 294 295 297 298 298 298 299 299 299 299 300 300 300 301 301 302 302 303 307 310 311 312 311 313 314 317 316 320 320 320 323 325 317 318 323 323 322 321 320
291 293 293 293 294 295 295 295 295 296 294 292 292 292 292 293 294 295 295 296 297 298 298 298 298 298 299 298 300 301 302 302 304 305 308 310 311 314 314 316 317 320 320 321 322 322 320 321 320 320 320 321 320 318
291 293 294 294 295 295 295 296 295 295 293 293 292 292 291 291 291 292 295 295 297 297 297 297 297 297 299 299 300 300 301 301 302 304 305 308 314 313 313 315 317 319 320 322 319 320 320 321 320 322 323 322 321 320
291 293 294 294 294 295 295 295 295 293 292 292 292 292 291 291 292 292 293 294 295 296 298 297 298 300 300 300 300 301 301 301 302 303 305 307 309 315 316 318 320 319 319 321 318 317 320 321 318 322 322 318 319 317
292 292 293 294 294 294 294 292 292 291 291 291 291 291 291 291 292 293 293 293 295 297 298 298 298 299 300 301 301 302 302 302 303 304 305 308 311 314 315 316 320 318 319 322 323 319 320 321 319 320 318 318 317 316
291 292 292 293 293 293 293 292 291 291 291 292 292 292 292 292 292 293 294 294 294 296 298 299 300 300 300 301 302 301 302 302 303 305 308 309 311 316 317 317 316 318 321 322 321 323 320 320 321 322 318 317 316 317
290 292 292 292 293 292 292 292 291 291 291 292 293 293 293 292 293 294 295 299 299 298 298 298 300 302 302 303 303 303 304 306 308 310 310 310 314 315 316 318 315 318 319 321 320 320 318 318 317 318 317 316 316 316
289 292 292 291 291 292 292 291 291 291 292 293 293 293 293 293 294 294 293 293 295 297 297 298 301 301 304 307 309 309 310 310 306 309 311 310 311 313 319 317 318 316 317 318 320 320 321 319 318 316 316 316 315 315
288 291 291 291 291 292 292 292 292 291 292 293 294 294 295 295 295 295 294 296 297 298 298 299 301 302 305 305 305 308 308 305 306 310 311 314 314 312 316 316 317 317 317 318 318 319 319 319 316 315 315 315 315 313
287 290 291 290 291 291 291 292 292 290 292 293 294 295 294 294 294 295 296 297 299 299 298 298 300 302 302 302 302 300 304 304 308 308 311 312 313 313 316 317 319 316 317 318 315 313 315 312 314 313 314 315 315 313
287 289 290 290 290 291 290 291 292 290 292 294 295 294 295 296 297 297 298 298 298 298 298 299 300 300 302 303 303 303 305 304 310 310 311 310 312 309 316 317 318 317 318 318 318 316 316 318 313 312 311 313 313 312
287 288 290 290 290 290 291 289 291 291 291 294 294 294 295 295 296 296 296 296 299 298 299 302 303 303 304 305 304 303 306 306 311 307 308 310 307 309 315 315 316 317 318 319 319 315 313 313 311 312 313 314 313 311
289 288 289 289 290 290 291 292 291 291 291 291 295 295 296 295 297 295 292 300 299 299 301 304 306 307 305 303 302 306 306 306 306 309 311 309 306 310 313 314 315 317 319 319 318 316 315 317 318 318 317 313 309 309
290 289 289 289 290 290 291 292 292 291 291 294 294 295 296 296 291 294 296 300 301 300 300 301 303 305 304 302 303 306 307 306 309 311 312 306 307 312 313 314 315 317 318 318 319 318 317 318 318 314 310 310 307 305
290 290 290 289 290 291 291 292 292 291 293 294 294 293 293 294 295 297 298 299 299 300 300 300 301 300 302 304 304 306 308 308 309 310 308 305 307 314 314 314 314 314 316 316 317 317 316 314 309 308 307 306 304 301
291 291 291 291 291 291 292 293 291 293 294 294 295 296 296 296 294 298 300 299 300 299 299 300 303 304 306 305 306 305 307 308 307 303 304 304 306 308 311 313 314 313 313 312 312 311 310 309 307 306 304 302 301 301
290 290 291 292 291 292 292 292 291 294 294 295 295 295 295 295 296 297 299 299 298 299 301 301 305 307 302 305 304 303 304 303 301 303 305 305 306 308 311 311 313 312 312 311 311 309 308 307 306 303 301 300 300 299
290 290 290 292 292 292 292 293 293 294 294 294 294 294 295 296 297 299 299 298 298 298 298 302 299 303 302 305 303 302 301 303 302 302 305 306 307 308 310 309 309 310 310 310 309 307 307 305 303 301 300 300 300 299
290 290 291 292 292 292 292 293 293 295 294 294 294 295 296 297 297 298 299 299 300 299 299 299 302 303 302 299 300 301 302 303 304 304 305 306 307 308 310 309 308 308 308 308 307 306 305 304 302 301 301 300 299 299
291 291 293 292 292 292 293 294 293 294 295 295 296 297 298 299 299 300 300 300 300 300 300 302 302 302 301 302 303 303 304 304 305 305 305 306 307 308 308 309 307 307 307 306 305 304 302 302 302 301 300 299 299 299
291 292 293 293 292 293 295 295 294 294 295 296 297 297 298 298 299 299 299 299 300 300 301 302 303 303 304 305 304 304 304 305 305 305 305 305 306 308 307 306 306 305 305 304 303 303 303 303 303 300 300 299 298 297
294 295 294 293 294 295 295 296 296 296 296 296 298 298 297 296 296 297 299 298 299 300 302 303 304 304 305 304 304 304 305 305 305 306 305 305 304 305 305 305 305 304 304 303 303 304 303 302 300 300 299 297 296 297
295 294 294 296 296 295 295 296 296 296 295 295 297 297 297 297 298 298 298 299 300 302 303 303 304 304 305 305 305 305 305 305 305 305 305 305 305 304 304 304 304 304 304 303 303 302 301 301 299 297 296 296 296 296
295 295 295 295 295 289 296 295 297 297 297 296 297 297 299 298 299 298 299 299 302 302 302 303 303 304 304 304 305 305 304 305 305 305 305 304 304 304 304 303 303 302 302 301 301 301 301 298 297 296 297 297 297 297
295 294 295 293 294 295 296 295 296 296 296 296 297 297 299 298 298 298 300 299 300 300 302 302 303 303 304 303 303 304 304 305 304 304 303 304 303 303 302 302 302 301 301 300 301 300 299 297 297 297 297 296 297 299
295 294 293 294 295 293 294 292 295 294 295 294 299 299 298 297 296 297 299 299 299 299 300 301 301 303 302 303 303 303 303 304 304 303 303 303 303 303 300 300 300 300 300 299 298 298 298 297 297 297 298 298 299 298
296 295 295 295 296 297 296 295 295 293 291 293 297 298 297 292 294 299 299 298 299 300 300 300 301 303 302 302 302 302 303 303 303 302 301 301 300 300 299 299 298 297 297 297 297 298 298 298 298 298 298 298 299 299
295 296 295 296 296 297 293 293 292 291 294 296 296 294 292 293 297 296 298 299 299 300 300 300 301 301 300 300 300 300 300 299 299 299 298 298 298 298 298 298 298 298 298 299 298 298 298 298 298 298 298 298 298 298
296 296 297 292 294 295 293 293 293 297 297 297 292 295 297 294 294 296 299 299 300 300 300 300 299 299 299 299 299 299 299 299 299 299 298 299 299 299 299 298 298 298 298 298 298 298 298 299 299 299 299 300 300 298
296 297 293 288 288 294 295 296 296 296 296 297 296 295 293 293 293 295 298 300 300 300 299 300 300 300 300 300 300 300 300 300 300 300 299 299 299 298 298 298 298 298 298 298 298 299 299 299 300 300 300 299 297 296
296 295 294 293 289 294 295 296 296 297 297 296 296 294 292 293 293 294 297 299 300 301 300 300 300 300 300 300 300 299 299 299 298 298 298 298 298 298 298 298 298 297 297 297 297 297 297 297 297 297 297 296 295 295
294 294 294 294 294 295 295 296 295 295 295 295 294 294 293 292 291 292 292 295 297 298 299 299 299 300 299 299 299 298 298 298 298 297 297 297 297 297 297 297 296 296 296 295 295 295 295 296 296 295 295 294 293 293
294 294 294 293 294 294 294 294 294 293 293 293 293 293 292 291 289 291 291 293 295 297 298 297 298 298 297 297 297 297 297 297 297 297 297 296 296 295 295 294 294 294 294 294 294 294 293 293 293 292 292 292 292 292
Wind_Speed
38 24 23 22 24 24 25 27 29 29 27 26 26 25 25 26 27 28 33 31 28 14 28 22 23 30 25 22 14 13 12 12 7 8 6 9 10 15 19 26 13 32 19 20 24 24 28 12 10 23 18 9 11 23
32 20 24 23 23 24 24 26 28 32 25 25 25 25 24 25 26 26 32 29 28 31 36 28 30 32 42 50 33 21 22 23 8 2 4 5 7 6 18 22 18 17 22 18 19 22 5 22 23 29 11 7 23 27
28 18 24 27 24 24 25 25 27 25 21 23 23 23 23 24 24 26 29 24 20 25 38 39 44 50 40 50 49 35 38 36 41 38 15 9 10 6 13 17 25 25 16 13 6 10 15 25 28 28 29 41 29 25
22 14 20 16 28 28 22 19 19 18 21 21 21 21 22 23 22 22 25 26 25 17 10 30 41 41 41 41 46 53 60 51 48 37 22 10 10 11 12 12 11 7 13 19 8 3 14 31 35 34 25 28 24 26
16 12 14 13 23 28 24 19 20 21 21 20 20 21 21 22 20 21 24 30 29 29 10 19 38 47 32 33 38 43 51 52 41 23 10 14 18 16 8 6 14 8 7 14 10 14 18 23 34 21 31 25 27 31
13 10 13 12 12 18 20 16 18 18 18 18 19 20 20 19 16 15 11 23 29 36 17 7 29 39 37 32 39 50 56 53 51 23 15 25 30 11 5 5 9 32 32 32 8 15 25 19 39 34 32 29 34 40
15 9 11 13 12 13 16 17 16 16 16 17 17 18 18 17 18 25 10 8 4 12 8 5 5 16 24 23 38 44 48 34 27 39 18 11 11 26 10 5 5 24 34 34 32 23 21 28 27 33 34 38 40 39
15 8 10 14 16 15 15 15 14 15 15 15 15 16 15 17 20 30 36 32 27 30 10 3 6 7 13 8 7 14 14 18 11 7 5 4 10 8 9 18 13 12 28 30 40 40 45 33 27 38 42 41 40 39
15 10 9 13 15 15 15 15 14 14 13 13 11 12 13 16 17 23 23 22 21 20 5 5 3 4 4 6 10 8 5 3 7 4 3 4 5 7 7 12 24 23 19 23 36 31 22 28 39 41 46 44 43 40
16 14 12 12 14 17 16 14 13 12 11 9 9 6 5 7 14 17 12 7 10 12 13 6 10 10 10 12 3 4 5 3 3 4 3 3 3 7 21 21 23 20 22 30 28 20 30 30 41 46 48 47 43 40
17 16 14 14 14 16 18 16 13 10 12 11 8 8 7 6 5 6 8 7 7 3 9 11 23 11 13 7 4 10 3 1 2 2 2 3 3 6 26 25 21 20 18 22 27 27 30 42 48 46 42 44 43 39
19 19 17 16 15 16 17 18 16 17 18 12 6 8 7 6 6 5 4 3 5 6 5 3 7 14 7 10 5 5 2 1 4 1 1 3 4 8 25 26 21 25 24 24 21 25 27 37 41 41 34 25 27 32
20 21 19 18 18 16 18 17 19 17 16 22 10 6 6 8 7 5 6 4 3 3 3 5 4 6 9 8 5 3 3 4 2 1 3 4 2 5 21 21 19 24 26 27 27 30 32 27 21 27 35 40 38 32
21 23 21 20 20 18 20 19 21 17 13 7 8 6 5 5 5 5 3 2 4 8 15 15 9 4 5 3 2 3 2 1 1 2 5 2 5 18 14 20 27 30 29 27 31 26 30 30 30 31 36 36 34 31
21 22 23 23 21 20 23 19 20 19 9 6 6 6 8 10 6 6 13 9 13 17 17 9 7 5 2 4 1 1 2 2 3 5 4 1 9 24 20 21 22 23 24 26 32 35 33 33 34 35 33 31 28 27
16 16 21 25 24 22 21 18 21 19 6 5 5 3 8 2 4 5 8 8 10 27 28 7 3 3 5 3 2 5 5 5 4 4 9 7 9 17 20 22 25 25 27 25 26 31 35 37 38 36 31 27 25 21
13 19 13 17 21 21 17 23 17 8 6 5 5 14 12 7 8 11 5 4 12 11 3 5 4 5 1 1 2 4 4 3 3 4 3 3 8 16 20 24 29 29 28 30 34 36 36 37 35 34 32 27 23 19
20 19 15 14 21 18 18 16 9 6 8 10 4 11 14 14 11 11 11 9 4 6 6 3 9 3 4 4 3 4 7 8 3 1 6 9 11 16 22 28 30 31 33 33 35 38 37 36 34 32 29 25 21 18
20 21 19 16 23 20 7 9 9 4 10 5 8 10 9 10 15 18 16 14 15 10 11 6 5 3 4 4 4 4 5 4 4 8 13 14 17 21 25 28 30 33 35 38 39 38 35 31 31 27 23 20 18 16
21 25 21 22 24 16 6 5 11 7 3 6 8 10 8 7 9 8 12 12 10 3 3 4 4 4 4 7 10 8 4 6 17 21 16 17 21 24 26 30 34 36 39 40 38 35 32 29 24 22 19 18 17 15
23 24 23 26 28 15 8 8 9 7 8 7 6 8 6 8 7 7 9 10 8 6 3 12 24 22 17 13 7 5 10 18 19 23 28 26 25 26 29 32 36 39 42 39 36 32 29 26 23 20 19 15 10 8
12 15 17 24 6 12 7 11 5 7 8 5 11 7 4 3 3 6 5 7 6 10 13 23 23 19 12 4 4 8 15 14 16 27 29 33 35 36 39 42 43 40 36 34 32 29 25 21 20 18 14 11 8 5
15 20 14 6 5 8 5 10 6 6 3 5 8 3 3 3 4 3 3 6 9 18 20 20 18 13 4 9 15 18 15 21 30 34 34 36 36 36 35 33 31 32 31 29 26 24 24 22 18 15 11 7 3 3
15 7 4 6 6 3 6 4 3 4 4 4 5 4 4 4 3 2 4 4 9 15 11 10 12 14 14 16 18 18 24 33 34 34 33 34 34 31 30 30 28 25 23 25 23 21 19 16 13 9 7 5 5 6
5 3 5 3 3 3 3 3 4 4 5 5 5 3 3 3 2 3 3 2 5 5 5 11 14 16 23 21 22 26 31 32 35 37 34 31 30 29 26 24 22 21 19 19 18 14 14 13 11 9 8 6 7 8
4 7 8 8 5 4 5 4 4 6 3 3 3 0 2 1 2 4 2 5 3 3 9 17 22 27 23 24 29 29 32 33 32 32 28 26 23 23 23 22 20 19 17 15 12 12 12 10 9 7 7 8 9 11
5 6 7 7 7 6 3 3 3 2 4 5 2 2 0 1 3 1 3 3 8 9 10 17 27 35 35 33 32 31 29 28 29 29 26 23 21 19 17 18 18 16 14 11 11 11 9 8 8 8 9 11 12 14
5 8 7 10 5 5 4 4 4 6 4 5 6 4 5 5 1 5 4 11 14 19 23 28 31 31 31 30 28 26 24 24 24 23 21 20 17 16 13 11 9 8 6 6 6 6 7 9 11 13 14 13 11 10
3 9 11 3 3 2 3 5 5 3 4 8 4 2 2 1 3 1 8 12 15 19 22 25 26 25 25 24 22 21 21 20 20 19 16 17 14 11 10 8 6 4 3 5 7 9 9 8 7 7 6 6 6 7
3 8 5 3 4 3 3 2 3 4 3 5 5 5 5 4 6 3 13 16 16 17 14 10 18 19 22 23 24 21 16 13 10 9 9 8 6 5 4 4 3 2 2 2 3 3 2 3 3 4 4 3 3 4
7 5 4 3 2 2 5 9 11 11 6 5 6 7 6 6 9 7 12 23 21 13 11 16 17 15 14 15 14 13 12 9 7 6 5 4 5 5 6 6 5 3 3 2 2 2 2 3 3 3 3 3 4 5
2 3 3 3 3 13 11 4 3 4 3 3 3 4 5 4 4 5 9 8 10 14 16 15 15 15 12 11 11 10 8 8 7 6 6 6 7 7 7 6 5 5 5 5 5 6 6 7 6 5 4 4 5 5
2 4 6 5 4 4 4 5 3 3 6 3 4 2 5 4 4 5 8 7 10 13 14 12 11 12 12 11 9 8 8 8 8 8 8 8 7 5 4 3 2 2 3 2 2 3 5 5 7 6 2 3 4 5
Wind_Direction
292 291 250 234 222 222 222 221 217 215 214 218 220 220 219 219 220 223 234 236 234 252 259 251 246 242 251 243 250 246 310 263 229 235 251 233 224 230 235 256 278 224 218 225 232 236 246 195 165 202 234 211 237 232
294 280 235 226 222 223 228 229 229 211 209 218 219 220 222 222 222 225 240 242 244 247 260 266 262 263 253 246 247 252 252 260 284 351 279 252 246 200 232 254 218 232 228 222 202 221 166 190 207 215 232 248 235 218
301 260 226 229 218 226 226 218 203 198 212 218 221 224 227 228 227 228 239 244 241 255 271 268 267 272 261 251 249 241 251 252 249 248 266 258 257 189 224 256 238 222 201 220 190 210 209 211 235 219 226 236 226 220
306 254 234 232 209 218 199 195 197 202 222 224 226 229 233 235 237 235 240 244 243 252 264 278 276 266 271 262 251 249 251 253 252 255 246 251 254 243 228 227 246 210 165 209 248 222 209 212 204 202 231 218 212 200
302 256 240 230 207 192 192 199 214 220 224 227 231 234 238 241 241 244 251 247 247 234 271 283 286 268 257 258 253 249 245 242 239 247 236 247 247 240 236 214 228 206 195 198 217 188 201 214 205 203 209 207 201 182
293 248 244 225 203 187 182 208 216 221 225 230 234 237 240 241 241 248 270 265 253 244 251 254 264 272 269 256 250 244 242 240 240 234 240 239 240 231 224 206 233 222 215 201 191 200 224 218 183 197 213 190 178 173
284 251 223 235 202 205 214 217 220 226 232 236 238 240 243 239 233 218 214 195 176 314 254 271 258 262 267 264 251 246 246 238 234 240 230 236 259 217 238 235 220 221 207 208 201 199 203 198 181 190 188 175 171 167
269 254 225 214 214 219 219 220 226 232 236 239 241 244 245 242 244 244 245 252 269 283 242 240 261 277 252 246 243 242 226 205 211 259 216 202 242 233 246 208 222 239 203 195 192 200 203 189 189 175 177 175 167 163
252 250 233 223 218 218 220 222 228 232 235 238 244 247 245 235 239 255 264 269 264 243 254 234 244 275 302 343 335 283 185 178 203 233 210 231 181 209 273 180 203 211 195 189 181 190 177 188 176 173 170 166 165 162
247 238 234 235 229 223 221 223 226 227 227 232 236 216 222 224 245 260 258 232 214 215 220 249 241 253 281 303 288 289 230 200 214 228 247 227 260 232 210 219 184 179 182 185 156 134 154 158 164 167 169 169 170 167
244 234 233 236 235 226 223 223 220 223 220 219 209 207 210 234 252 225 221 212 208 233 219 239 229 243 251 232 245 231 251 207 253 220 232 228 250 211 201 204 189 179 174 173 177 174 185 184 168 161 162 167 168 162
241 232 232 236 236 230 225 220 218 221 221 218 195 197 207 221 216 235 235 231 219 228 218 241 232 214 228 212 218 257 246 224 254 89 252 248 254 223 195 200 190 178 163 157 171 165 162 169 166 159 148 153 167 167
238 230 229 233 233 234 222 219 217 231 238 254 186 184 184 210 221 214 222 204 239 240 260 267 264 220 193 209 240 237 225 232 285 250 247 239 229 141 183 184 175 180 178 157 139 142 150 151 166 177 179 180 171 165
234 227 229 232 230 232 222 226 217 217 217 246 171 190 217 208 228 211 208 255 263 290 299 303 281 226 214 236 227 196 258 208 29 285 249 224 185 127 142 171 167 172 159 159 162 166 176 187 199 200 180 165 163 157
228 224 229 233 228 228 227 220 205 207 215 246 192 203 215 233 257 272 282 280 287 292 285 278 241 203 207 247 234 182 199 254 223 228 248 103 154 156 157 155 163 159 168 180 182 186 192 194 180 165 158 155 155 150
223 232 235 227 220 220 218 219 197 211 235 231 239 247 231 273 280 263 278 283 334 344 330 236 243 199 220 193 159 226 170 221 245 225 269 308 165 156 168 175 168 164 170 167 166 172 167 162 156 149 147 147 146 144
224 235 236 205 202 206 212 191 195 207 224 219 229 234 250 289 268 265 218 272 342 350 339 297 253 219 92 57 235 209 221 232 256 295 267 351 159 151 156 163 167 168 167 165 162 160 155 150 147 145 145 144 141 135
232 233 231 218 197 200 206 202 184 223 209 224 212 234 224 237 258 275 280 293 351 341 309 287 305 248 202 199 214 233 238 261 300 109 88 113 131 145 156 152 157 160 155 152 150 149 151 151 150 148 143 140 139 138
234 224 218 214 197 193 193 190 213 241 223 207 234 237 240 255 263 268 268 286 287 320 295 262 249 235 232 228 253 281 217 190 141 107 109 139 146 145 151 150 150 152 150 151 151 150 150 152 148 144 142 139 139 138
221 223 223 206 201 192 201 216 196 235 224 214 203 200 224 236 264 254 254 256 243 256 240 251 255 255 265 336 327 290 243 182 149 122 126 140 144 144 146 156 159 157 152 151 146 142 139 138 139 140 144 147 151 148
224 239 224 214 195 187 207 186 197 219 190 186 191 217 247 245 242 243 249 235 224 210 236 249 268 284 279 272 273 205 187 174 155 150 146 142 146 148 148 150 152 149 143 141 141 142 143 144 147 148 147 147 144 149
227 213 158 164 153 187 228 196 222 178 174 185 171 206 252 247 227 220 223 211 228 234 230 259 271 290 262 124 140 165 165 168 158 144 140 139 139 137 139 140 140 140 143 144 145 145 147 149 149 149 155 152 149 160
181 167 150 148 168 187 203 178 176 171 169 193 141 197 239 238 237 229 240 231 249 252 253 263 279 266 145 121 129 140 151 156 141 135 133 131 131 132 135 137 139 141 143 145 149 151 150 149 149 153 149 152 197 253
139 140 159 156 180 197 164 175 154 141 160 177 184 207 218 217 204 248 251 235 240 267 279 260 203 160 135 131 131 140 148 141 137 135 134 133 132 131 135 135 137 139 145 144 145 144 145 151 157 164 182 213 249 260
119 166 169 146 196 159 117 148 163 173 204 203 207 219 222 187 231 244 261 262 304 311 228 187 179 168 134 126 128 138 142 141 137 133 133 138 133 132 134 136 135 137 141 150 149 159 167 179 195 209 229 241 247 254
165 185 173 175 161 157 174 154 173 198 180 220 194 225 221 204 241 257 269 325 322 92 157 147 140 126 121 131 131 136 137 139 139 133 134 143 150 152 144 144 147 146 155 161 170 183 199 206 217 227 236 248 261 275
171 185 193 188 168 151 114 101 158 154 172 195 196 168 113 258 255 300 326 72 110 124 153 155 137 126 122 121 121 125 133 140 147 143 139 141 146 147 154 169 172 169 162 166 188 202 208 213 222 237 250 263 277 283
187 171 165 166 149 169 133 129 176 204 215 199 145 187 190 185 201 329 38 101 92 123 127 123 120 122 123 124 126 133 138 143 141 140 143 143 147 154 161 163 153 153 166 193 222 248 265 271 272 273 275 278 277 275
155 148 125 77 87 120 182 169 199 224 172 182 153 158 137 87 4 123 148 115 113 113 123 126 125 128 128 128 130 134 136 141 147 147 145 141 141 143 150 147 147 168 225 259 270 274 274 271 268 262 255 252 250 245
113 156 97 104 132 171 204 197 165 176 148 133 113 100 68 25 17 179 162 149 146 132 113 131 131 140 141 145 142 144 146 150 150 142 136 137 150 157 167 173 182 206 227 234 227 219 231 252 253 243 237 228 195 200
142 121 109 108 122 116 144 142 131 127 101 80 103 125 130 111 77 88 125 150 153 173 180 156 146 148 151 151 148 146 139 137 143 151 153 169 186 192 190 196 207 219 234 248 264 268 259 264 271 271 249 212 189 188
68 117 131 119 117 146 142 121 101 90 102 109 81 91 124 128 85 63 79 135 165 166 170 167 162 153 155 155 149 152 157 166 173 180 190 196 197 199 205 216 236 259 271 278 270 259 249 236 228 219 207 200 191 192
90 91 95 108 117 133 141 115 83 70 45 62 52 68 60 68 79 91 85 108 149 153 151 159 163 159 158 156 157 163 169 179 190 193 190 189 190 198 211 224 267 303 309 306 280 250 231 216 201 185 170 211 202 181